This is the latest recevied weather packets stored in our database for station/object N8BAP. If no packets are shown the sender has not sent any weather packets the latest 10 day(s).
| Time | Temp. | Humidity | Pressure | Rain* | Wind** | Luminosity | Snow |
|---|---|---|---|---|---|---|---|
| 1777474900 | 14.44° C | 95% | 1015 hPa | 1.27 mm | - | 75 W/m² | - |
| 1777474596 | 14.44° C | 95% | 1015 hPa | 1.78 mm | - | 25 W/m² | - |
| 1777474292 | 14.44° C | 95% | 1015.3 hPa | 3.56 mm | - | 31 W/m² | - |
| 1777473989 | 14.44° C | 95% | 1014.8 hPa | 1.78 mm | - | 53 W/m² | - |
| 1777473687 | 14.44° C | 95% | 1014.8 hPa | 3.05 mm | - | 65 W/m² | - |
| 1777473383 | 14.44° C | 95% | 1014.8 hPa | 1.27 mm | - | 73 W/m² | - |
| 1777473079 | 14.44° C | 94% | 1015 hPa | 0 mm | - | 44 W/m² | - |
| 1777472776 | 14.44° C | 94% | 1014.8 hPa | 0 mm | - | 29 W/m² | - |
| 1777472472 | 15° C | 94% | 1014.8 hPa | 0 mm | - | 46 W/m² | - |
| 1777472169 | 15° C | 93% | 1014.7 hPa | 0 mm | - | 86 W/m² | - |
| 1777471864 | 15° C | 92% | 1014.8 hPa | 1.78 mm | - | 74 W/m² | - |
| 1777471561 | 15.56° C | 91% | 1014.8 hPa | 1.78 mm | - | 39 W/m² | - |
| 1777471258 | 16.11° C | 91% | 1014.8 hPa | 0 mm | - | 13 W/m² | - |
| 1777470954 | 16.11° C | 91% | 1014.6 hPa | 0 mm | - | 50 W/m² | - |
| 1777470651 | 16.11° C | 91% | 1015 hPa | 0 mm | - | 58 W/m² | - |
| 1777470347 | 16.11° C | 91% | 1014.9 hPa | 0 mm | - | 49 W/m² | - |
| 1777470044 | 15.56° C | 91% | 1014.8 hPa | 0 mm | - | 83 W/m² | - |
| 1777469739 | 15.56° C | 90% | 1014.8 hPa | 0 mm | - | 122 W/m² | - |
| 1777469430 | 15.56° C | 91% | 1014.9 hPa | 0 mm | - | 99 W/m² | - |
| 1777469125 | 15.56° C | 91% | 1014.7 hPa | 0 mm | - | 88 W/m² | - |
| 1777468825 | 15.56° C | 91% | 1015 hPa | 0 mm | - | 106 W/m² | - |
| 1777468522 | 15° C | 93% | 1014.8 hPa | 0 mm | - | 282 W/m² | - |
| 1777468218 | 15° C | 93% | 1015 hPa | 0 mm | - | 119 W/m² | - |
| 1777467915 | 14.44° C | 93% | 1015.1 hPa | 0 mm | - | 77 W/m² | - |
| 1777467611 | 14.44° C | 94% | 1015.2 hPa | 0 mm | - | 74 W/m² | - |
* Rain latest hour (hover to see other rain measurements)
** Current wind speed in m/s (hover to see current wind gust speed)